AAL2496 KPHL-KPBI

Flight info

Callsign AAL2496
Flight time 2h 21m
Altitude 34000
Route OOD TEBEE HAYDO TRPOD Q409 CRPLR PAACK Q97 KENLL CPTAN3
Aircraft A320/M-SDE3FGHIRWY/LB1

Departure

Time 2026-05-04 16:44
Airport Philadelphia International Airport (KPHL)

Arrival

Time 2026-05-04 19:06
Airport Palm Beach International Airport (KPBI)
Time Latitude Longitude Altitude Speed Heading
2026-05-04 16:11 39.87495 -75.24018 26 ft 0 kts 271°
2026-05-04 16:35 39.87516 -75.23951 29 ft 0 kts 152°
2026-05-04 16:39 39.87489 -75.23933 29 ft 4 kts 154°
2026-05-04 16:39 39.87409 -75.23895 28 ft 8 kts 165°
2026-05-04 16:40 39.87285 -75.23816 29 ft 12 kts 163°
2026-05-04 16:40 39.87103 -75.23737 25 ft 15 kts 116°
2026-05-04 16:41 39.87151 -75.23442 26 ft 17 kts 75°
2026-05-04 16:41 39.87123 -75.23151 27 ft 16 kts 236°
2026-05-04 16:42 39.86914 -75.23407 25 ft 11 kts 202°
2026-05-04 16:43 39.86857 -75.23634 25 ft 36 kts 255°
2026-05-04 16:43 39.86531 -75.25263 26 ft 142 kts 255°
2026-05-04 16:43 39.86247 -75.26630 295 ft 161 kts 255°
2026-05-04 16:44 39.84894 -75.32538 2972 ft 169 kts 251°
2026-05-04 16:45 39.83452 -75.35012 3767 ft 207 kts 195°
2026-05-04 16:46 39.78447 -75.33992 5436 ft 264 kts 171°
2026-05-04 16:46 39.74815 -75.32934 7133 ft 271 kts 173°
2026-05-04 16:47 39.71035 -75.31987 8671 ft 282 kts 174°
2026-05-04 16:47 39.67129 -75.31099 10183 ft 291 kts 175°
2026-05-04 16:48 39.60692 -75.30840 11165 ft 338 kts 192°
2026-05-04 16:48 39.58334 -75.31290 11661 ft 346 kts 192°
2026-05-04 16:49 39.53489 -75.32180 12914 ft 356 kts 192°
2026-05-04 16:49 39.48509 -75.33071 14158 ft 365 kts 192°
2026-05-04 16:50 39.43435 -75.33971 15362 ft 371 kts 192°
2026-05-04 16:50 39.38274 -75.34896 16552 ft 376 kts 192°
2026-05-04 16:51 39.33063 -75.35834 17742 ft 382 kts 193°
2026-05-04 16:51 39.30423 -75.36312 18299 ft 385 kts 193°
2026-05-04 16:51 39.25056 -75.37286 19336 ft 393 kts 193°
2026-05-04 16:52 39.19588 -75.38272 20385 ft 400 kts 192°
2026-05-04 16:52 39.16818 -75.38764 20889 ft 404 kts 192°
2026-05-04 16:53 39.11202 -75.39760 21859 ft 411 kts 192°
2026-05-04 16:53 39.02597 -75.41301 23244 ft 421 kts 192°
2026-05-04 16:54 38.99680 -75.41821 23668 ft 424 kts 192°
2026-05-04 16:55 38.87878 -75.43900 25165 ft 434 kts 193°
2026-05-04 16:55 38.81889 -75.44957 25941 ft 436 kts 193°
2026-05-04 16:56 38.75847 -75.46028 26666 ft 440 kts 193°
2026-05-04 16:56 38.66680 -75.47655 27701 ft 446 kts 193°
2026-05-04 16:57 38.63596 -75.48201 28080 ft 448 kts 193°
2026-05-04 16:57 38.57404 -75.49288 28782 ft 451 kts 193°
2026-05-04 16:58 38.48052 -75.50915 30060 ft 450 kts 194°
2026-05-04 16:58 38.44956 -75.51455 30467 ft 449 kts 194°
2026-05-04 16:59 38.38777 -75.52537 31226 ft 447 kts 195°
2026-05-04 17:00 38.27888 -75.58634 32745 ft 423 kts 221°
2026-05-04 17:00 38.20618 -75.64969 33921 ft 421 kts 220°
2026-05-04 17:01 38.16574 -75.68468 34043 ft 426 kts 220°
2026-05-04 17:02 38.06731 -75.76990 34053 ft 429 kts 220°
2026-05-04 17:03 37.99333 -75.83407 34058 ft 430 kts 220°
2026-05-04 17:03 37.91896 -75.89827 34061 ft 431 kts 220°
2026-05-04 17:04 37.82012 -75.98332 34077 ft 431 kts 220°
2026-05-04 17:05 37.72100 -76.06834 34070 ft 430 kts 220°
2026-05-04 17:06 37.64666 -76.13193 34074 ft 430 kts 220°
2026-05-04 17:07 37.57863 -76.18495 34061 ft 435 kts 214°
2026-05-04 17:07 37.51594 -76.22663 34049 ft 436 kts 214°
2026-05-04 17:08 37.43538 -76.27999 34055 ft 436 kts 214°
2026-05-04 17:09 37.38175 -76.31559 34025 ft 436 kts 214°
2026-05-04 17:09 37.32811 -76.35116 34050 ft 435 kts 214°
2026-05-04 17:10 37.19454 -76.43932 34068 ft 434 kts 214°
2026-05-04 17:11 37.14107 -76.47448 34047 ft 433 kts 214°
2026-05-04 17:12 37.06112 -76.52711 34063 ft 433 kts 214°
2026-05-04 17:13 36.92763 -76.61456 34045 ft 433 kts 214°
2026-05-04 17:14 36.82112 -76.68402 34091 ft 431 kts 214°
2026-05-04 17:15 36.74147 -76.73590 34093 ft 430 kts 214°
2026-05-04 17:16 36.63558 -76.80460 34093 ft 428 kts 215°
2026-05-04 17:17 36.53007 -76.87299 34082 ft 427 kts 215°
2026-05-04 17:18 36.42486 -76.94066 34086 ft 424 kts 216°
2026-05-04 17:19 36.32020 -77.00799 34098 ft 423 kts 216°
2026-05-04 17:20 36.21610 -77.07482 34092 ft 420 kts 217°
2026-05-04 17:20 36.13824 -77.12469 34100 ft 419 kts 217°
2026-05-04 17:21 36.03500 -77.19048 34068 ft 418 kts 216°
2026-05-04 17:22 35.98334 -77.22334 34093 ft 417 kts 216°
2026-05-04 17:23 35.90883 -77.27692 34098 ft 405 kts 226°
2026-05-04 17:23 35.88676 -77.29843 34094 ft 405 kts 226°
2026-05-04 17:24 35.82016 -77.36282 34055 ft 405 kts 226°
2026-05-04 17:25 35.73111 -77.44834 34081 ft 406 kts 226°
2026-05-04 17:26 35.64230 -77.53369 34091 ft 406 kts 226°
2026-05-04 17:27 35.53061 -77.64053 34104 ft 408 kts 224°
2026-05-04 17:28 35.44096 -77.72597 34123 ft 408 kts 224°
2026-05-04 17:29 35.30632 -77.85402 34116 ft 408 kts 224°
2026-05-04 17:31 35.19423 -77.96005 34115 ft 408 kts 224°
2026-05-04 17:32 35.08171 -78.06617 34104 ft 409 kts 224°
2026-05-04 17:33 34.99153 -78.15094 34110 ft 409 kts 223°
2026-05-04 17:34 34.90106 -78.23564 34080 ft 409 kts 223°
2026-05-04 17:35 34.78816 -78.34127 34099 ft 410 kts 223°
2026-05-04 17:36 34.74317 -78.38321 34107 ft 410 kts 223°
2026-05-04 17:36 34.69786 -78.42532 34113 ft 410 kts 223°
2026-05-04 17:37 34.65266 -78.46738 34099 ft 410 kts 223°
2026-05-04 17:37 34.60735 -78.50951 34111 ft 410 kts 223°
2026-05-04 17:38 34.56204 -78.55152 34117 ft 410 kts 223°
2026-05-04 17:38 34.51676 -78.59341 34122 ft 410 kts 223°
2026-05-04 17:39 34.44868 -78.65615 34106 ft 410 kts 223°
2026-05-04 17:39 34.40333 -78.69793 34128 ft 410 kts 222°
2026-05-04 17:40 34.35679 -78.73828 34131 ft 412 kts 220°
2026-05-04 17:40 34.30927 -78.77721 34116 ft 412 kts 219°
2026-05-04 17:41 34.26181 -78.81607 34118 ft 412 kts 220°
2026-05-04 17:41 34.21457 -78.85522 34087 ft 412 kts 220°
2026-05-04 17:42 34.16737 -78.89457 34092 ft 412 kts 220°
2026-05-04 17:42 34.12053 -78.93363 34107 ft 412 kts 220°
2026-05-04 17:43 34.07331 -78.97282 34115 ft 412 kts 220°
2026-05-04 17:43 34.02605 -79.01203 34126 ft 412 kts 220°
2026-05-04 17:44 33.97886 -79.05122 34116 ft 412 kts 220°
2026-05-04 17:44 33.93161 -79.09023 34114 ft 412 kts 219°
2026-05-04 17:45 33.89220 -79.12269 34125 ft 412 kts 219°
2026-05-04 17:45 33.84482 -79.16176 34126 ft 412 kts 219°
2026-05-04 17:46 33.79747 -79.20075 34126 ft 413 kts 219°
2026-05-04 17:46 33.75011 -79.23975 34132 ft 413 kts 219°
2026-05-04 17:47 33.70275 -79.27869 34112 ft 413 kts 219°
2026-05-04 17:47 33.65543 -79.31762 34115 ft 412 kts 220°
2026-05-04 17:48 33.60864 -79.35736 34131 ft 412 kts 220°
2026-05-04 17:48 33.56205 -79.39736 34136 ft 412 kts 220°
2026-05-04 17:49 33.51537 -79.43709 34144 ft 412 kts 220°
2026-05-04 17:49 33.46853 -79.47663 34118 ft 411 kts 220°
2026-05-04 17:50 33.42177 -79.51606 34132 ft 411 kts 220°
2026-05-04 17:50 33.37502 -79.55563 34135 ft 411 kts 220°
2026-05-04 17:51 33.32861 -79.59484 34140 ft 411 kts 220°
2026-05-04 17:51 33.28181 -79.63425 34137 ft 411 kts 220°
2026-05-04 17:52 33.23508 -79.67350 34117 ft 411 kts 220°
2026-05-04 17:52 33.18832 -79.71280 34117 ft 411 kts 220°
2026-05-04 17:53 33.14156 -79.75202 34121 ft 411 kts 220°
2026-05-04 17:53 33.09478 -79.79120 34126 ft 411 kts 220°
2026-05-04 17:54 33.04801 -79.83041 34145 ft 411 kts 220°
2026-05-04 17:54 33.00122 -79.86942 34144 ft 411 kts 220°
2026-05-04 17:55 32.95442 -79.90842 34141 ft 410 kts 220°
2026-05-04 17:55 32.90763 -79.94742 34151 ft 410 kts 220°
2026-05-04 17:56 32.86083 -79.98641 34160 ft 410 kts 220°
2026-05-04 17:56 32.81403 -80.02536 34159 ft 410 kts 220°
2026-05-04 17:57 32.76724 -80.06423 34159 ft 410 kts 220°
2026-05-04 17:57 32.72072 -80.10277 34129 ft 410 kts 220°
2026-05-04 17:58 32.67384 -80.14148 34141 ft 410 kts 220°
2026-05-04 17:58 32.62696 -80.18019 34147 ft 410 kts 221°
2026-05-04 17:59 32.58011 -80.21898 34145 ft 410 kts 221°
2026-05-04 18:00 32.50900 -80.27576 34113 ft 415 kts 215°
2026-05-04 18:00 32.45801 -80.30798 34125 ft 415 kts 215°
2026-05-04 18:01 32.40706 -80.34024 34133 ft 415 kts 215°
2026-05-04 18:01 32.35604 -80.37251 34137 ft 416 kts 215°
2026-05-04 18:02 32.27940 -80.42083 34140 ft 416 kts 215°
2026-05-04 18:02 32.22824 -80.45290 34122 ft 416 kts 215°
2026-05-04 18:03 32.17720 -80.48496 34118 ft 416 kts 215°
2026-05-04 18:03 32.12648 -80.51684 34132 ft 416 kts 215°
2026-05-04 18:04 32.07546 -80.54886 34132 ft 415 kts 216°
2026-05-04 18:05 31.99889 -80.59683 34131 ft 415 kts 216°
2026-05-04 18:05 31.94788 -80.62873 34114 ft 415 kts 216°
2026-05-04 18:06 31.87131 -80.67652 34129 ft 415 kts 216°
2026-05-04 18:06 31.82034 -80.70832 34138 ft 415 kts 216°
2026-05-04 18:07 31.76934 -80.74017 34137 ft 415 kts 216°
2026-05-04 18:07 31.71832 -80.77188 34107 ft 414 kts 217°
2026-05-04 18:08 31.66738 -80.80350 34121 ft 414 kts 217°
2026-05-04 18:08 31.61687 -80.83489 34133 ft 413 kts 217°
2026-05-04 18:09 31.51477 -80.89810 34143 ft 413 kts 217°
2026-05-04 18:10 31.46430 -80.92936 34097 ft 413 kts 217°
2026-05-04 18:10 31.41357 -80.96079 34117 ft 412 kts 217°
2026-05-04 18:11 31.36287 -80.99219 34123 ft 412 kts 217°
2026-05-04 18:11 31.31212 -81.02344 34131 ft 412 kts 217°
2026-05-04 18:12 31.26002 -81.05233 34134 ft 423 kts 207°
2026-05-04 18:12 31.23095 -81.06033 34138 ft 436 kts 198°
2026-05-04 18:12 31.20023 -81.06257 34093 ft 446 kts 191°
2026-05-04 18:13 31.13813 -81.06372 34108 ft 446 kts 191°
2026-05-04 18:14 31.04486 -81.06542 34126 ft 446 kts 191°
2026-05-04 18:14 30.98272 -81.06674 34133 ft 446 kts 191°
2026-05-04 18:15 30.85846 -81.06946 34114 ft 447 kts 191°
2026-05-04 18:16 30.79629 -81.07074 34124 ft 447 kts 191°
2026-05-04 18:16 30.73443 -81.07192 34132 ft 447 kts 191°
2026-05-04 18:17 30.64121 -81.07379 34089 ft 447 kts 190°
2026-05-04 18:18 30.54831 -81.07792 34105 ft 444 kts 193°
2026-05-04 18:18 30.48661 -81.08228 34117 ft 444 kts 193°
2026-05-04 18:19 30.39393 -81.08835 34133 ft 445 kts 192°
2026-05-04 18:19 30.33208 -81.09184 34137 ft 445 kts 192°
2026-05-04 18:20 30.27021 -81.09542 34129 ft 445 kts 192°
2026-05-04 18:20 30.20835 -81.09918 34134 ft 445 kts 192°
2026-05-04 18:21 30.14648 -81.10296 34143 ft 445 kts 192°
2026-05-04 18:21 30.08471 -81.10674 34102 ft 445 kts 192°
2026-05-04 18:22 30.02290 -81.11043 34123 ft 445 kts 192°
2026-05-04 18:22 29.96107 -81.11406 34133 ft 445 kts 192°
2026-05-04 18:23 29.89930 -81.11772 34136 ft 445 kts 192°
2026-05-04 18:23 29.83752 -81.12138 34139 ft 444 kts 192°
2026-05-04 18:24 29.77555 -81.12404 34115 ft 447 kts 190°
2026-05-04 18:24 29.71322 -81.12400 34126 ft 448 kts 188°
2026-05-04 18:25 29.65084 -81.12340 34131 ft 448 kts 189°
2026-05-04 18:25 29.58844 -81.12209 34129 ft 454 kts 183°
2026-05-04 18:26 29.55733 -81.11581 34134 ft 465 kts 174°
2026-05-04 18:26 29.52631 -81.10413 34104 ft 472 kts 169°
2026-05-04 18:26 29.46457 -81.07841 34119 ft 472 kts 169°
2026-05-04 18:27 29.40291 -81.05272 34132 ft 472 kts 169°
2026-05-04 18:27 29.34119 -81.02716 34138 ft 471 kts 169°
2026-05-04 18:28 29.27950 -81.00165 34139 ft 471 kts 169°
2026-05-04 18:28 29.21783 -80.97621 33824 ft 469 kts 169°
2026-05-04 18:29 29.18714 -80.96359 33059 ft 469 kts 169°
2026-05-04 18:29 29.15633 -80.95091 32261 ft 472 kts 168°
2026-05-04 18:29 29.12539 -80.93814 31456 ft 474 kts 168°
2026-05-04 18:29 29.09445 -80.92536 30831 ft 472 kts 168°
2026-05-04 18:30 29.04347 -80.90425 29878 ft 466 kts 168°
2026-05-04 18:30 29.01311 -80.89168 29272 ft 462 kts 168°
2026-05-04 18:30 28.98304 -80.87929 28681 ft 457 kts 168°
2026-05-04 18:31 28.95324 -80.86707 28231 ft 453 kts 168°
2026-05-04 18:31 28.92360 -80.85498 28060 ft 452 kts 168°
2026-05-04 18:31 28.89391 -80.84293 28130 ft 454 kts 168°
2026-05-04 18:32 28.83445 -80.81874 28119 ft 454 kts 168°
2026-05-04 18:32 28.77516 -80.79447 27628 ft 449 kts 168°
2026-05-04 18:32 28.74587 -80.78251 27072 ft 445 kts 168°
2026-05-04 18:33 28.71690 -80.77068 26540 ft 441 kts 167°
2026-05-04 18:33 28.68815 -80.75896 26017 ft 437 kts 167°
2026-05-04 18:33 28.65969 -80.74733 25510 ft 433 kts 167°
2026-05-04 18:33 28.63144 -80.73582 25156 ft 430 kts 167°
2026-05-04 18:34 28.60331 -80.72440 25079 ft 428 kts 167°
2026-05-04 18:34 28.57523 -80.71300 25104 ft 429 kts 167°
2026-05-04 18:34 28.54707 -80.70161 25098 ft 429 kts 167°
2026-05-04 18:34 28.51893 -80.69022 25099 ft 429 kts 167°
2026-05-04 18:35 28.49074 -80.67882 25122 ft 429 kts 167°
2026-05-04 18:35 28.46266 -80.66744 25118 ft 429 kts 167°
2026-05-04 18:35 28.43455 -80.65603 25120 ft 429 kts 167°
2026-05-04 18:35 28.40642 -80.64464 25120 ft 429 kts 167°
2026-05-04 18:36 28.37832 -80.63327 25105 ft 429 kts 167°
2026-05-04 18:36 28.35020 -80.62191 25090 ft 429 kts 167°
2026-05-04 18:36 28.32208 -80.61054 25084 ft 429 kts 167°
2026-05-04 18:36 28.29397 -80.59917 25091 ft 429 kts 167°
2026-05-04 18:37 28.26581 -80.58779 25092 ft 429 kts 167°
2026-05-04 18:37 28.23770 -80.57643 25091 ft 429 kts 167°
2026-05-04 18:37 28.20991 -80.56520 25092 ft 429 kts 167°
2026-05-04 18:37 28.18175 -80.55392 25091 ft 429 kts 167°
2026-05-04 18:38 28.15356 -80.54268 25091 ft 429 kts 167°
2026-05-04 18:38 28.12545 -80.53144 25089 ft 429 kts 167°
2026-05-04 18:38 28.09729 -80.52013 25092 ft 428 kts 167°
2026-05-04 18:38 28.06918 -80.50881 25094 ft 429 kts 167°
2026-05-04 18:39 28.04113 -80.49752 25090 ft 428 kts 167°
2026-05-04 18:39 28.01303 -80.48622 25084 ft 428 kts 167°
2026-05-04 18:39 27.98498 -80.47494 24990 ft 426 kts 167°
2026-05-04 18:39 27.95716 -80.46376 24511 ft 423 kts 167°
2026-05-04 18:40 27.92957 -80.45268 24063 ft 419 kts 167°
2026-05-04 18:40 27.90222 -80.44170 23771 ft 413 kts 167°
2026-05-04 18:40 27.87532 -80.43092 23418 ft 409 kts 166°
2026-05-04 18:40 27.84863 -80.42020 23014 ft 406 kts 166°
2026-05-04 18:41 27.82212 -80.40956 22585 ft 403 kts 166°
2026-05-04 18:41 27.79580 -80.39900 22146 ft 400 kts 166°
2026-05-04 18:41 27.76965 -80.38851 21716 ft 398 kts 166°
2026-05-04 18:41 27.74363 -80.37811 21300 ft 395 kts 166°
2026-05-04 18:42 27.71780 -80.36781 20847 ft 393 kts 166°
2026-05-04 18:42 27.69210 -80.35756 20396 ft 390 kts 166°
2026-05-04 18:42 27.66658 -80.34730 19925 ft 388 kts 165°
2026-05-04 18:42 27.64187 -80.33480 19462 ft 389 kts 160°
2026-05-04 18:43 27.61750 -80.32188 18997 ft 386 kts 160°
2026-05-04 18:43 27.59327 -80.30907 18531 ft 384 kts 160°
2026-05-04 18:43 27.56946 -80.29649 18046 ft 381 kts 160°
2026-05-04 18:43 27.54556 -80.28387 17545 ft 378 kts 160°
2026-05-04 18:44 27.52179 -80.27132 17049 ft 375 kts 160°
2026-05-04 18:44 27.50584 -80.26291 16718 ft 374 kts 160°
2026-05-04 18:44 27.47455 -80.24641 16089 ft 370 kts 160°
2026-05-04 18:44 27.45131 -80.23416 15633 ft 367 kts 159°
2026-05-04 18:45 27.42823 -80.22202 15190 ft 365 kts 159°
2026-05-04 18:45 27.40533 -80.20997 14742 ft 362 kts 159°
2026-05-04 18:45 27.38287 -80.19817 14304 ft 360 kts 159°
2026-05-04 18:45 27.36028 -80.18630 13858 ft 357 kts 159°
2026-05-04 18:46 27.33757 -80.17437 13391 ft 354 kts 159°
2026-05-04 18:46 27.31592 -80.16298 13247 ft 342 kts 159°
2026-05-04 18:46 27.29472 -80.15182 13117 ft 330 kts 159°
2026-05-04 18:46 27.27423 -80.14104 12965 ft 320 kts 159°
2026-05-04 18:47 27.25420 -80.13051 12667 ft 316 kts 159°
2026-05-04 18:47 27.23431 -80.12044 12208 ft 313 kts 161°
2026-05-04 18:47 27.21424 -80.11072 11712 ft 309 kts 161°
2026-05-04 18:47 27.19476 -80.10146 11280 ft 307 kts 161°
2026-05-04 18:48 27.17515 -80.09214 10997 ft 304 kts 161°
2026-05-04 18:48 27.15575 -80.08288 10692 ft 302 kts 161°
2026-05-04 18:48 27.13647 -80.07362 10365 ft 300 kts 162°
2026-05-04 18:48 27.11737 -80.06433 10039 ft 298 kts 161°
2026-05-04 18:49 27.09847 -80.05500 9728 ft 296 kts 161°
2026-05-04 18:49 27.07963 -80.04563 9417 ft 295 kts 159°
2026-05-04 18:49 27.06093 -80.03633 9119 ft 293 kts 161°
2026-05-04 18:49 27.04234 -80.02708 8794 ft 291 kts 159°
2026-05-04 18:50 27.02388 -80.01792 8463 ft 289 kts 159°
2026-05-04 18:50 27.00548 -80.00883 8125 ft 288 kts 158°
2026-05-04 18:50 26.98715 -79.99980 7803 ft 287 kts 158°
2026-05-04 18:50 26.96823 -79.99351 7474 ft 283 kts 174°
2026-05-04 18:51 26.94875 -79.99426 7144 ft 280 kts 193°
2026-05-04 18:51 26.93060 -80.00184 6810 ft 279 kts 210°
2026-05-04 18:51 26.91485 -80.01461 6427 ft 281 kts 217°
2026-05-04 18:51 26.89932 -80.02803 6045 ft 283 kts 217°
2026-05-04 18:52 26.88370 -80.04150 5749 ft 283 kts 217°
2026-05-04 18:52 26.86815 -80.05489 5500 ft 282 kts 216°
2026-05-04 18:52 26.85261 -80.06826 5199 ft 282 kts 216°
2026-05-04 18:52 26.83721 -80.08151 5057 ft 275 kts 217°
2026-05-04 18:53 26.82237 -80.09443 4932 ft 266 kts 220°
2026-05-04 18:53 26.81070 -80.10978 4807 ft 255 kts 243°
2026-05-04 18:53 26.80511 -80.12802 4679 ft 242 kts 265°
2026-05-04 18:53 26.80368 -80.14642 4493 ft 235 kts 269°
2026-05-04 18:54 26.80239 -80.16446 4271 ft 230 kts 267°
2026-05-04 18:54 26.80100 -80.18222 4036 ft 228 kts 268°
2026-05-04 18:54 26.79948 -80.19998 3993 ft 229 kts 267°
2026-05-04 18:54 26.79785 -80.21775 3995 ft 229 kts 265°
2026-05-04 18:55 26.79614 -80.23549 3991 ft 231 kts 267°
2026-05-04 18:55 26.79457 -80.27161 3990 ft 230 kts 273°
2026-05-04 18:55 26.79438 -80.28954 3993 ft 232 kts 272°
2026-05-04 18:56 26.79403 -80.30789 3999 ft 236 kts 272°
2026-05-04 18:56 26.79365 -80.32591 3990 ft 234 kts 272°
2026-05-04 18:56 26.79341 -80.34440 3994 ft 234 kts 270°
2026-05-04 18:56 26.79335 -80.36239 3992 ft 230 kts 272°
2026-05-04 18:57 26.79317 -80.38037 3988 ft 231 kts 272°
2026-05-04 18:57 26.79310 -80.39792 3990 ft 224 kts 272°
2026-05-04 18:57 26.79304 -80.41570 3977 ft 228 kts 267°
2026-05-04 18:57 26.78774 -80.43201 3986 ft 227 kts 231°
2026-05-04 18:58 26.77528 -80.44253 3982 ft 226 kts 194°
2026-05-04 18:58 26.75990 -80.44360 3986 ft 222 kts 159°
2026-05-04 18:58 26.74707 -80.43531 3991 ft 212 kts 129°
2026-05-04 18:58 26.73729 -80.42304 3987 ft 211 kts 123°
2026-05-04 18:59 26.72802 -80.41027 3989 ft 211 kts 123°
2026-05-04 18:59 26.71895 -80.39742 3989 ft 209 kts 122°
2026-05-04 18:59 26.70993 -80.38461 3996 ft 211 kts 123°
2026-05-04 18:59 26.70094 -80.37156 3999 ft 211 kts 121°
2026-05-04 19:00 26.69449 -80.35724 3997 ft 205 kts 101°
2026-05-04 19:00 26.69311 -80.34163 3972 ft 197 kts 90°
2026-05-04 19:00 26.69248 -80.32653 3822 ft 190 kts 89°
2026-05-04 19:00 26.69347 -80.31225 3597 ft 183 kts 81°
2026-05-04 19:01 26.69225 -80.29809 3339 ft 183 kts 93°
2026-05-04 19:01 26.69097 -80.28405 3097 ft 181 kts 88°
2026-05-04 19:01 26.69019 -80.27000 2869 ft 181 kts 90°
2026-05-04 19:01 26.68954 -80.25596 2641 ft 179 kts 89°
2026-05-04 19:02 26.68895 -80.24256 2398 ft 165 kts 90°
2026-05-04 19:02 26.68841 -80.23035 2188 ft 149 kts 89°
2026-05-04 19:02 26.68794 -80.21932 2007 ft 138 kts 86°
2026-05-04 19:02 26.68750 -80.20882 1831 ft 134 kts 87°
2026-05-04 19:03 26.68706 -80.19840 1665 ft 134 kts 89°
2026-05-04 19:03 26.68662 -80.18810 1495 ft 132 kts 88°
2026-05-04 19:03 26.68619 -80.17779 1317 ft 133 kts 88°
2026-05-04 19:03 26.68575 -80.16764 1147 ft 130 kts 86°
2026-05-04 19:04 26.68531 -80.15744 978 ft 132 kts 86°
2026-05-04 19:04 26.68487 -80.14724 779 ft 134 kts 89°
2026-05-04 19:04 26.68441 -80.13696 608 ft 131 kts 91°
2026-05-04 19:04 26.68388 -80.12662 435 ft 133 kts 86°
2026-05-04 19:05 26.68354 -80.11635 238 ft 132 kts 90°
2026-05-04 19:05 26.68310 -80.10622 92 ft 129 kts 88°
2026-05-04 19:05 26.68267 -80.09637 29 ft 116 kts 90°
2026-05-04 19:05 26.68238 -80.08854 23 ft 80 kts 93°
2026-05-04 19:06 26.68218 -80.08391 22 ft 43 kts 90°
2026-05-04 19:06 26.68216 -80.08190 22 ft 17 kts 68°
2026-05-04 19:06 26.68313 -80.08192 22 ft 18 kts 300°
2026-05-04 19:06 26.68322 -80.08330 22 ft 19 kts 270°
2026-05-04 19:07 26.68329 -80.08486 22 ft 21 kts 273°
2026-05-04 19:07 26.68337 -80.08658 22 ft 21 kts 271°
2026-05-04 19:07 26.68393 -80.08719 22 ft 13 kts 356°
2026-05-04 19:07 26.68437 -80.08802 23 ft 15 kts 274°
2026-05-04 19:08 26.68443 -80.08926 22 ft 17 kts 273°
2026-05-04 19:08 26.68450 -80.09070 22 ft 18 kts 280°
2026-05-04 19:08 26.68527 -80.09094 22 ft 13 kts 347°
2026-05-04 19:08 26.68569 -80.09182 22 ft 15 kts 274°
2026-05-04 19:09 26.68534 -80.09294 22 ft 17 kts 231°
2026-05-04 19:09 26.68566 -80.09389 22 ft 13 kts 330°
2026-05-04 19:09 26.68624 -80.09360 22 ft 6 kts 38°
2026-05-04 19:09 26.68636 -80.09350 22 ft 0 kts 37°